sat.trackr.live / text

‹ back to catalog

ONEWEB-0183

NORAD 48219 · 2021-031K

PAYLOAD ACTIVE UNKNOWN

§ Identity

Operator
Country
UK
Launch date
2021-04-25
Launch site
VOSTO
Launch vehicle
Mass (kg)
RCS (m²)

Purposes: comms

External: N2YO · Heavens-Above · Gunter

§ Orbital elements

Epoch: 2026-05-25T03:04:17.789952Z

Period
109.55 min
Inclination
87.8941°
Eccentricity
0.0002019
Mean motion
13.14502226 rev/d
Perigee alt
1,204.3 km
Apogee alt
1,207.3 km
Semi-major
7,583.9 km
B*
-3.9663e-4
RAAN
294.3038°
Arg perigee
99.7531°
Mean anomaly
260.3827°
Rev number
24,529

§ Raw data

ONEWEB-01831 48219U 21031K   26145.12798368 -.00000134  00000+0 -39663-3 0  99922 48219  87.8941 294.3038 0002019  99.7531 260.3827 13.14502226245294

JSON: /api/v1/satellites/48219 · /tle

For live sub-satellite position, see the globe view (requires WebGL).

§ Visibility from observer

Set your observer location to see the next 7 days of passes ≥ 10°. The values pass through the URL so the page stays shareable.

No JS? Fill the form by hand. The geolocation button needs JavaScript.